This demonstration page uses our WeatherBlox Daily Observations layout. Learn more.

Left ArrowRight Arrow

39.29038, -76.61219

Hourly Observations for June 15, 2020

Temp ( °F °C ) Dew Point ( °F °C ) Humidity (%) Winds ( mph kmh ) Pressure ( in mb ) Visibility ( mi km ) Precip ( " mm )
12:54 am 00:54 Partly Cloudy 63 17.2 52 11.1 68 68 ESE 6 9 30.32 1027 10 16 0.00 0.00
1:54 am 01:54 Mostly Clear 63 17.2 53 11.7 70 70 E 7 11 30.32 1027 10 16 0.00 0.00
2:54 am 02:54 Mostly Clear 63 17.2 51 10.6 65 65 ENE 7 11 30.32 1027 10 16 0.00 0.00
3:54 am 03:54 Mostly Cloudy 63 17.2 50 10 63 63 NNE 5 7 30.33 1027 10 16 0.00 0.00
4:54 am 04:54 Mostly Cloudy 62 16.7 52 11.1 70 70 NE 7 11 30.33 1027 10 16 0.00 0.00
5:54 am 05:54 Mostly Cloudy 62 16.7 52 11.1 70 70 NNE 8 13 30.34 1027 10 16 0.00 0.00
6:54 am 06:54 Mostly Cloudy 63 17.2 52 11.1 68 68 NE 9 15 30.35 1028 10 16 0.00 0.00
7:54 am 07:54 Mostly Cloudy 65 18.3 53 11.7 66 66 NE 10 17 30.36 1028 10 16 0.00 0.00
8:54 am 08:54 Mostly Cloudy 68 20 53 11.7 59 59 ENE 10 17 30.39 1029 10 16 0.00 0.00
12:54 pm 12:54 Mostly Cloudy 75 23.9 52 11.1 45 45 E 10 17 30.35 1028 10 16 0.00 0.00
1:54 pm 13:54 Partly Cloudy 76 24.4 51 10.6 42 42 ENE 15 24 30.33 1027 10 16 0.00 0.00
2:54 pm 14:54 Mostly Cloudy 77 25 50 10 39 39 NE 11 18 30.33 1027 10 16 0.00 0.00
3:11 pm 15:11 Mostly Cloudy 77 25 50 10 39 39 NE 16 26 30.32 1027 10 16 0.00 0.00
3:54 pm 15:54 Mostly Cloudy 77 25 50 10 39 39 ENE 13 21 30.32 1027 10 16 0.00 0.00
4:54 pm 16:54 Mostly Cloudy 77 25 50 10 39 39 E 15 24 30.30 1026 10 16 0.00 0.00
5:54 pm 17:54 Mostly Cloudy 77 25 50 10 39 39 E 10 17 30.29 1026 10 16 0.00 0.00
6:54 pm 18:54 Mostly Cloudy 77 25 50 10 39 39 E 14 22 30.30 1026 10 16 0.00 0.00
7:54 pm 19:54 Mostly Cloudy 73 22.8 53 11.7 50 50 ESE 10 17 30.31 1026 10 16 0.00 0.00
8:54 pm 20:54 Mostly Cloudy 71 21.7 52 11.1 51 51 ESE 12 19 30.32 1027 10 16 0.00 0.00
9:54 pm 21:54 Cloudy 68 20 53 11.7 59 59 E 9 15 30.34 1028 10 16 0.00 0.00
10:54 pm 22:54 Cloudy 67 19.4 52 11.1 59 59 E 12 19 30.35 1028 10 16 0.00 0.00
11:54 pm 23:54 Cloudy 66 18.9 49 9.4 54 54 E 12 19 30.35 1028 10 16 0.00 0.00

Powered by AerisWeather